When you browse on this site, cookies collect data to enhance your experience and personalize the content and advertising you see.
Visit our Privacy Policy to learn more. By continuing to use the site, you agree to this use of cookies and data.
  • Em Portugal
  • Lista de países
  • Para 7 dias
  • Temperatura da água
  • Mapa do tempo
  • Widgets de tempo
  • user-avatar
    Iniciar Sessão

    Previsão horária em Uige

    Hoje, 23 Setembro, Segunda-feira

    Tempo Temperatura Precipitação Vento Pressão Humidade
    00:00 +24°C° 0.1 mm 1 m/s 691 mmHg 83%
    01:00 +22°C° 0 mm 0 m/s 691 mmHg 85%
    02:00 +21°C° 0 mm 0 m/s 691 mmHg 86%
    03:00 +21°C° 0 mm 0 m/s 690 mmHg 87%
    04:00 +21°C° 0 mm 0 m/s 690 mmHg 87%
    05:00 +21°C° 0 mm 0 m/s 691 mmHg 86%
    06:00 +22°C° 0 mm 0 m/s 691 mmHg 86%
    07:00 +22°C° 0 mm 0 m/s 692 mmHg 84%
    08:00 +25°C° 0 mm 0 m/s 692 mmHg 74%
    09:00 +27°C° 0 mm 0 m/s 692 mmHg 64%
    10:00 +32°C° 0 mm 1 m/s 693 mmHg 53%
    11:00 +33°C° 0.7 mm 1 m/s 692 mmHg 50%
    12:00 +34°C° 0.7 mm 1 m/s 691 mmHg 48%
    13:00 +35°C° 0.7 mm 1 m/s 691 mmHg 45%
    14:00 +33°C° 0.4 mm 1 m/s 690 mmHg 49%
    15:00 +32°C° 0.4 mm 1 m/s 689 mmHg 54%
    16:00 +30°C° 0.4 mm 1 m/s 689 mmHg 58%
    17:00 +29°C° 0.6 mm 1 m/s 689 mmHg 65%
    18:00 +27°C° 0.6 mm 1 m/s 690 mmHg 72%
    19:00 +25°C° 0.6 mm 2 m/s 690 mmHg 79%
    20:00 +25°C° 0.8 mm 1 m/s 691 mmHg 83%
    21:00 +24°C° 0.8 mm 1 m/s 691 mmHg 87%
    22:00 +24°C° 0.8 mm 1 m/s 691 mmHg 90%
    23:00 +23°C° 0 mm 1 m/s 691 mmHg 91%

    Amanhã, 24 Setembro, Terça-feira

    Tempo Temperatura Precipitação Vento Pressão Humidade
    00:00 +23°C° 0 mm 1 m/s 691 mmHg 92%
    01:00 +23°C° 0 mm 1 m/s 691 mmHg 93%
    02:00 +23°C° 0.1 mm 1 m/s 691 mmHg 93%
    03:00 +23°C° 0.1 mm 1 m/s 691 mmHg 94%
    04:00 +22°C° 0.1 mm 1 m/s 691 mmHg 94%
    05:00 +23°C° 0 mm 1 m/s 691 mmHg 93%
    06:00 +23°C° 0 mm 1 m/s 691 mmHg 93%
    07:00 +23°C° 0 mm 1 m/s 692 mmHg 92%
    08:00 +24°C° 0 mm 1 m/s 692 mmHg 86%
    09:00 +25°C° 0 mm 1 m/s 692 mmHg 80%
    10:00 +27°C° 0 mm 1 m/s 692 mmHg 74%
    11:00 +29°C° 0.1 mm 1 m/s 692 mmHg 66%
    12:00 +30°C° 0.1 mm 2 m/s 691 mmHg 59%
    13:00 +32°C° 0.1 mm 2 m/s 691 mmHg 52%
    14:00 +31°C° 1.2 mm 2 m/s 690 mmHg 55%
    15:00 +30°C° 1.2 mm 2 m/s 689 mmHg 58%
    16:00 +29°C° 1.2 mm 2 m/s 689 mmHg 62%
    17:00 +27°C° 1.3 mm 2 m/s 689 mmHg 70%
    18:00 +26°C° 1.3 mm 2 m/s 689 mmHg 79%
    19:00 +24°C° 1.3 mm 2 m/s 690 mmHg 88%
    20:00 +23°C° 0 mm 1 m/s 690 mmHg 89%
    21:00 +23°C° 0 mm 1 m/s 691 mmHg 91%
    22:00 +23°C° 0 mm 1 m/s 691 mmHg 92%
    23:00 +23°C° 0.1 mm 1 m/s 691 mmHg 93%

    Depois de amanhã, 25 Setembro, Quarta-feira

    Tempo Temperatura Precipitação Vento Pressão Humidade
    00:00 +23°C° 0.1 mm 1 m/s 691 mmHg 93%
    01:00 +23°C° 0.1 mm 1 m/s 691 mmHg 93%
    02:00 +22°C° 0 mm 1 m/s 691 mmHg 93%
    03:00 +22°C° 0 mm 1 m/s 691 mmHg 94%
    04:00 +21°C° 0 mm 2 m/s 690 mmHg 94%
    05:00 +21°C° 0 mm 2 m/s 691 mmHg 93%
    06:00 +21°C° 0 mm 2 m/s 691 mmHg 92%
    07:00 +21°C° 0 mm 2 m/s 692 mmHg 91%
    08:00 +23°C° 0 mm 2 m/s 692 mmHg 84%
    09:00 +25°C° 0 mm 1 m/s 693 mmHg 76%
    10:00 +27°C° 0 mm 1 m/s 693 mmHg 69%
    11:00 +28°C° 0.1 mm 1 m/s 693 mmHg 63%
    12:00 +30°C° 0.1 mm 2 m/s 692 mmHg 57%
    13:00 +31°C° 0.1 mm 2 m/s 692 mmHg 51%
    14:00 +31°C° 0.1 mm 3 m/s 691 mmHg 51%
    15:00 +31°C° 0.1 mm 3 m/s 690 mmHg 52%
    16:00 +31°C° 0.1 mm 3 m/s 690 mmHg 52%
    17:00 +29°C° 1.1 mm 3 m/s 690 mmHg 61%
    18:00 +27°C° 1.1 mm 2 m/s 690 mmHg 70%
    19:00 +25°C° 1.1 mm 1 m/s 690 mmHg 79%
    20:00 +25°C° 0 mm 1 m/s 690 mmHg 81%
    21:00 +24°C° 0 mm 1 m/s 691 mmHg 83%
    22:00 +24°C° 0 mm 1 m/s 691 mmHg 84%
    23:00 +23°C° 0 mm 1 m/s 691 mmHg 86%

    26 Setembro, Quinta-feira

    Tempo Temperatura Precipitação Vento Pressão Humidade
    00:00 +23°C° 0 mm 1 m/s 691 mmHg 89%
    01:00 +22°C° 0 mm 1 m/s 691 mmHg 91%
    02:00 +22°C° 0 mm 1 m/s 691 mmHg 91%
    03:00 +22°C° 0 mm 1 m/s 691 mmHg 91%
    04:00 +22°C° 0 mm 1 m/s 691 mmHg 91%
    05:00 +22°C° 0 mm 1 m/s 691 mmHg 89%
    06:00 +22°C° 0 mm 1 m/s 691 mmHg 88%
    07:00 +22°C° 0 mm 1 m/s 692 mmHg 87%
    08:00 +25°C° 0 mm 1 m/s 692 mmHg 76%
    09:00 +27°C° 0 mm 1 m/s 693 mmHg 66%
    10:00 +30°C° 0 mm 1 m/s 693 mmHg 56%
    11:00 +31°C° 0.1 mm 1 m/s 693 mmHg 51%
    12:00 +33°C° 0.1 mm 1 m/s 692 mmHg 47%
    13:00 +34°C° 0.1 mm 1 m/s 691 mmHg 42%
    14:00 +34°C° 0.4 mm 2 m/s 691 mmHg 45%
    15:00 +32°C° 0.4 mm 2 m/s 690 mmHg 49%
    16:00 +30°C° 0.4 mm 2 m/s 690 mmHg 52%
    17:00 +29°C° 0.5 mm 2 m/s 690 mmHg 61%
    18:00 +27°C° 0.5 mm 1 m/s 690 mmHg 71%
    19:00 +25°C° 0.5 mm 1 m/s 691 mmHg 80%
    20:00 +24°C° 0.7 mm 1 m/s 692 mmHg 83%
    21:00 +24°C° 0.7 mm 1 m/s 692 mmHg 85%
    22:00 +23°C° 0.7 mm 1 m/s 693 mmHg 88%
    23:00 +23°C° 1.7 mm 1 m/s 693 mmHg 89%

    27 Setembro, Sexta-feira

    Tempo Temperatura Precipitação Vento Pressão Humidade
    00:00 +23°C° 1.7 mm 1 m/s 692 mmHg 90%
    01:00 +22°C° 1.7 mm 1 m/s 692 mmHg 91%
    02:00 +22°C° 0 mm 1 m/s 692 mmHg 92%
    03:00 +22°C° 0 mm 1 m/s 692 mmHg 93%
    04:00 +21°C° 0 mm 1 m/s 691 mmHg 95%
    05:00 +22°C° 0 mm 1 m/s 692 mmHg 93%
    06:00 +22°C° 0 mm 1 m/s 692 mmHg 92%
    07:00 +22°C° 0 mm 1 m/s 693 mmHg 91%
    08:00 +24°C° 0 mm 1 m/s 693 mmHg 83%
    09:00 +25°C° 0 mm 1 m/s 693 mmHg 76%
    10:00 +27°C° 0 mm 2 m/s 693 mmHg 69%
    11:00 +27°C° 0 mm 2 m/s 693 mmHg 67%
    12:00 +28°C° 0 mm 2 m/s 692 mmHg 65%
    13:00 +28°C° 0 mm 2 m/s 691 mmHg 64%
    14:00 +28°C° 0 mm 2 m/s 690 mmHg 61%
    15:00 +29°C° 0 mm 1 m/s 690 mmHg 59%
    16:00 +29°C° 0 mm 1 m/s 690 mmHg 57%
    17:00 +28°C° 0.6 mm 1 m/s 690 mmHg 63%
    18:00 +26°C° 0.6 mm 1 m/s 690 mmHg 69%
    19:00 +25°C° 0.6 mm 1 m/s 690 mmHg 75%
    20:00 +24°C° 0.2 mm 1 m/s 691 mmHg 79%
    21:00 +24°C° 0.2 mm 1 m/s 691 mmHg 83%
    22:00 +23°C° 0.2 mm 2 m/s 691 mmHg 87%
    23:00 +23°C° 0.1 mm 2 m/s 691 mmHg 89%

    28 Setembro, Sábado

    Tempo Temperatura Precipitação Vento Pressão Humidade
    00:00 +21°C° 0.1 mm 2 m/s 691 mmHg 90%
    01:00 +21°C° 0.1 mm 2 m/s 691 mmHg 92%
    02:00 +22°C° 0.1 mm 1 m/s 691 mmHg 92%
    03:00 +22°C° 0.1 mm 1 m/s 691 mmHg 92%
    04:00 +22°C° 0.1 mm 1 m/s 691 mmHg 91%
    05:00 +22°C° 0 mm 1 m/s 691 mmHg 89%
    06:00 +22°C° 0 mm 1 m/s 692 mmHg 87%
    07:00 +22°C° 0 mm 1 m/s 692 mmHg 85%
    08:00 +24°C° 0 mm 2 m/s 692 mmHg 78%
    09:00 +25°C° 0 mm 2 m/s 693 mmHg 71%
    10:00 +27°C° 0 mm 2 m/s 693 mmHg 63%
    11:00 +28°C° 0.3 mm 2 m/s 692 mmHg 60%
    12:00 +29°C° 0.3 mm 2 m/s 692 mmHg 56%
    13:00 +30°C° 0.3 mm 2 m/s 691 mmHg 52%
    14:00 +29°C° 0.1 mm 2 m/s 690 mmHg 55%
    15:00 +28°C° 0.1 mm 2 m/s 690 mmHg 58%
    16:00 +28°C° 0.1 mm 1 m/s 689 mmHg 61%
    17:00 +27°C° 0 mm 1 m/s 689 mmHg 63%
    18:00 +26°C° 0 mm 1 m/s 690 mmHg 66%
    19:00 +25°C° 0 mm 2 m/s 690 mmHg 69%
    20:00 +24°C° 0 mm 1 m/s 691 mmHg 72%
    21:00 +24°C° 0 mm 1 m/s 691 mmHg 75%
    22:00 +23°C° 0 mm 1 m/s 691 mmHg 78%
    23:00 +22°C° 0 mm 1 m/s 691 mmHg 81%
    Mostrar mais